Simultaneous Nadir Overpasses (SNOs) Predictions

Prediction of SNOs between AQUA and NPP Satellite Orbit:

Table of predicted SNOs for the next 14.0 days since TLE Epoch: 6/21/2019
Index Date (AQUA) Time (AQUA) Lat,Lon (AQUA) SZA (AQUA ) Date (NPP) Time (NPP) Lat,Lon (NPP) SZA (NPP ) Distance(km) Time Diff (sec)
1 06/23/2019 14:05:13 75.75,-153.02 74.70 06/23/2019 14:04:55 75.76,-152.93 74.69 2.64 18
2 06/23/2019 14:54:27 -76.44, 16.77 106.12 06/23/2019 14:55:26 -76.44, 16.71 106.15 1.83 59
3 06/26/2019 05:32:43 -74.45, 151.72 103.72 06/26/2019 05:31:35 -74.43, 151.64 103.64 2.85 68
4 06/26/2019 06:21:35 76.08, -36.14 74.40 06/26/2019 06:21:44 76.09, -36.06 74.37 2.20 9
5 06/28/2019 21:48:55 -75.29, -90.23 104.55 06/28/2019 21:48:13 -75.30, -90.16 104.53 2.13 42
6 06/28/2019 22:37:58 76.36, 80.62 74.21 06/28/2019 22:38:34 76.37, 80.68 74.16 1.90 36
7 07/01/2019 14:05:16 -75.67, 26.73 104.81 07/01/2019 14:05:01 -75.68, 26.78 104.81 1.62 15
8 07/01/2019 14:54:20 76.68,-162.43 74.01 07/01/2019 14:55:23 76.68,-162.37 73.94 1.71 63
9 07/04/2019 05:32:33 74.82, -27.33 76.40 07/04/2019 05:31:29 74.83, -27.30 76.44 0.91 64




NCC Satellite Simultaneous Nadir Overpasses (SNOs) Prediction Service
